Morrisville, NC

12:08 PM EST on February 23, 2017 (GMT -0500)
Raleigh-Durham International

Weather History for KRDU - May, 2013

Change the Weather History Date:

Sunday, May 26, 2013

  Actual Average Record
Temperature  
Mean Temperature 61 °F 71 °F  
Max Temperature 73 °F 82 °F 94 °F (1953)
Min Temperature 48 °F 60 °F 43 °F (1979)
Degree Days  
Heating Degree Days 4 1  
Month to date heating degree days 84 50  
Since 1 July heating degree days 3320 3239  
Cooling Degree Days 0 7  
Month to date cooling degree days 87 112  
Year to date cooling degree days 137 173  
Growing Degree Days 10 (Base 50)    
Moisture  
Dew Point 44 °F    
Average Humidity 57    
Maximum Humidity 80    
Minimum Humidity 33    
Precipitation  
Precipitation 0.00 in 0.12 in 3.02 in (1946)
Month to date precipitation 4.52 2.67  
Year to date precipitation 19.03 16.43  
Snow  
Snow 0.00 in - - ()
Month to date snowfall 0.0  
Snow Depth 0.00 in    
Sea Level Pressure  
Sea Level Pressure 30.22 in    
Wind  
Wind Speed 2 mph (WSW)    
Max Wind Speed 13 mph    
Max Gust Speed 21 mph    
Visibility 10 miles    
Events      
T = Trace of Precipitation, MM = Missing Value Source: NWS Daily Summary

Daily Weather History Graph

Daily Weather History Graph

Search for Another Location

Airport or City:

Trip Planner

Search our weather history database for the weather conditions in past years. The results will help you decide how hot, cold, wet, or windy it might be!

Date:

Astronomy

May. 26, 2013 Rise Set
Actual Time 6:02 AM EDT 8:22 PM EDT
Civil Twilight 5:33 AM EDT 8:51 PM EDT
Nautical Twilight 4:57 AM EDT 9:27 PM EDT
Astronomical Twilight 4:17 AM EDT 10:07 PM EDT
Moon 10:09 PM EDT (5/26) 7:29 AM EDT (5/26)
Length of Visible Light 15h 18m
Length of Day
14h 19m
Waning Gibbous, 97% of the Moon is Illuminated
May 26
Waning Gibbous
May 31
Last Quarter
Jun 8
New
Jun 16
First Quarter
Jun 23
Full

Hourly Weather History & Observations

Time (EDT) Temp. Dew Point Humidity Pressure Visibility Wind Dir Wind Speed Gust Speed Precip Events Conditions
12:51 AM 48.9 °F 43.0 °F 80% 30.20 in 10.0 mi Calm Calm - N/A   Partly Cloudy
1:51 AM 54.0 °F 39.9 °F 59% 30.20 in 10.0 mi Calm Calm - N/A   Partly Cloudy
2:51 AM 52.0 °F 39.0 °F 61% 30.20 in 10.0 mi NNE 3.5 mph - N/A   Scattered Clouds
3:51 AM 52.0 °F 37.9 °F 59% 30.20 in 10.0 mi Calm Calm - N/A   Scattered Clouds
4:51 AM 48.9 °F 39.9 °F 71% 30.21 in 10.0 mi Calm Calm - N/A   Scattered Clouds
5:51 AM 50.0 °F 39.9 °F 68% 30.23 in 10.0 mi Calm Calm - N/A   Mostly Cloudy
6:51 AM 52.0 °F 42.1 °F 69% 30.24 in 10.0 mi Calm Calm - N/A   Mostly Cloudy
7:51 AM 53.1 °F 43.0 °F 69% 30.27 in 10.0 mi Calm Calm - N/A   Mostly Cloudy
8:51 AM 55.9 °F 44.1 °F 64% 30.28 in 10.0 mi Calm Calm - N/A   Mostly Cloudy
9:51 AM 60.1 °F 45.0 °F 57% 30.29 in 10.0 mi Calm Calm - N/A   Mostly Cloudy
10:51 AM 63.0 °F 39.9 °F 43% 30.28 in 10.0 mi Calm Calm - N/A   Mostly Cloudy
11:51 AM 66.0 °F 39.9 °F 38% 30.26 in 10.0 mi Calm Calm - N/A   Mostly Cloudy
12:51 PM 69.1 °F 44.1 °F 40% 30.24 in 10.0 mi WSW 5.8 mph - N/A   Scattered Clouds
1:51 PM 70.0 °F 39.9 °F 33% 30.23 in 10.0 mi West 11.5 mph - N/A   Scattered Clouds
2:51 PM 72.0 °F 46.0 °F 40% 30.21 in 10.0 mi Variable 6.9 mph 20.7 mph N/A   Scattered Clouds
3:51 PM 72.0 °F 46.0 °F 40% 30.19 in 10.0 mi SW 6.9 mph - N/A   Scattered Clouds
4:51 PM 73.0 °F 45.0 °F 37% 30.18 in 10.0 mi WSW 6.9 mph - N/A   Scattered Clouds
5:51 PM 73.0 °F 45.0 °F 37% 30.18 in 10.0 mi Calm Calm - N/A   Scattered Clouds
6:51 PM 70.0 °F 48.0 °F 46% 30.19 in 10.0 mi Calm Calm - N/A   Mostly Cloudy
7:51 PM 66.0 °F 50.0 °F 56% 30.19 in 10.0 mi West 3.5 mph - N/A   Mostly Cloudy
8:51 PM 63.0 °F 50.0 °F 63% 30.21 in 10.0 mi Calm Calm - N/A   Mostly Cloudy
9:51 PM 63.0 °F 50.0 °F 63% 30.21 in 10.0 mi Calm Calm - N/A   Scattered Clouds
10:51 PM 57.9 °F 50.0 °F 75% 30.23 in 10.0 mi Calm Calm - N/A   Mostly Cloudy
11:51 PM 55.0 °F 48.9 °F 80% 30.24 in 10.0 mi Calm Calm - N/A   Scattered Clouds